Vertical_Velocity
-1 -1 -1 -2 -3 -0 0 0 1 2 3 4 2 -0 -3 -4 -5 -5 -4 -3 -5 -3 1 2 5 0 -3 -3 -10 -5 4 3 -24 0 2 7 14 1 2 -0 12 13 -7 2 -4 -0 2
-1 -1 -2 -2 -1 -1 -1 1 1 1 1 -1 -3 -3 -2 -4 -4 -3 -4 -1 -2 -1 2 -2 7 -1 -5 -4 -6 -3 -5 -14 21 -9 -2 4 3 -5 1 -2 4 -4 -2 -4 1 -6 -1
-1 -1 -0 -1 -1 -1 0 0 -1 -2 -2 -2 -3 -1 -2 -7 -4 -3 -4 -3 -4 1 3 -11 1 -9 1 8 8 2 -2 -0 -6 5 -7 13 -5 8 10 5 -10 -4 12 5 -1 -4 -7
-2 -0 -1 -1 0 1 1 -0 -1 -3 -1 -1 -2 -0 0 -2 -1 -4 -1 0 2 0 -4 3 -6 9 -1 -4 -3 -2 -3 -9 8 -1 4 -3 14 -6 3 1 14 13 16 11 -12 3 -7
-2 -1 -1 -1 -1 0 -1 -1 -1 -1 -5 -4 -3 -2 1 1 -3 -6 -5 -1 4 -3 4 4 -18 -2 0 -1 -18 6 7 -4 -9 -3 -5 -4 16 -0 9 3 11 8 -5 4 7 -2 -1
-1 -0 -1 -1 -0 -1 -2 -2 -2 1 -2 -1 -1 -1 2 1 -1 -5 -5 -2 4 -5 -13 -7 -5 -13 -31 -11 -5 9 9 5 -3 -7 -1 9 3 1 3 8 -2 -4 4 2 -5 -8 9
-1 -2 -2 -1 -1 0 -2 -1 -2 -1 -1 -3 -5 -3 0 2 -2 -1 -6 -15 -20 -3 -14 15 27 6 -1 0 10 -6 -14 -32 -0 3 1 -0 7 -3 -9 -2 -3 1 3 -0 0 -5 9
-1 -2 -0 -2 -2 -0 -0 -2 -1 -2 -4 -1 -7 -2 0 2 -2 -6 -1 -9 3 4 -3 4 1 -2 15 19 -7 -18 -12 -7 0 -0 -2 -2 -1 -1 1 0 3 3 2 -3 -2 1 15
-1 -2 -1 -1 -1 -1 -0 -1 -0 -1 -5 -2 1 -6 -1 0 -2 -2 -7 2 2 -3 -1 -9 7 6 4 -1 4 -5 -4 1 2 1 -0 1 -9 0 3 0 4 1 -1 -0 -2 0 0
-1 -1 -0 0 -1 -2 -1 -1 -0 -1 -3 -6 0 2 -5 -4 -15 -6 1 -1 -1 -3 -8 -7 -14 -9 -36 -3 -5 -5 11 12 -3 3 1 2 -2 3 0 0 -2 1 -2 0 1 4 -2
-0 -2 0 0 -2 -1 -0 -2 2 -1 -2 -3 -9 -7 6 -4 12 -10 -3 2 4 -2 -12 -18 -15 5 9 -1 -1 -32 -5 -14 0 2 3 -6 -1 -1 -1 -4 -2 -8 -1 -3 -1 0 3
-2 0 -0 -1 -2 -2 -1 -1 -1 -1 0 -3 -5 1 -12 -21 2 6 -3 0 -2 -21 -14 -11 -2 -4 -13 -8 -7 -9 -4 -18 10 1 -2 1 -0 2 6 -2 -1 -2 -1 3 0 -1 7
-1 -1 -1 -3 -2 -0 -1 -0 -0 1 -2 -1 -3 3 -10 7 -4 -0 -3 2 -17 -9 -6 -11 -4 -2 1 -3 -9 -4 -2 -13 -1 -3 -5 -4 -2 -3 0 -3 -4 -2 -4 2 8 7 -4
-3 -1 -3 -2 1 1 -1 -0 2 1 -0 -3 -4 1 0 6 -5 -4 -6 -15 -14 2 1 -5 2 -4 3 3 -5 -4 -4 -6 -5 -2 1 2 -21 -2 -3 4 5 -1 -1 2 -4 -1 -3
-2 1 -2 -3 -1 -1 -1 -1 -2 0 0 -2 -3 -5 -16 -15 1 -8 -19 -10 5 2 5 3 -11 -2 -4 -6 6 -2 1 3 2 5 5 1 -5 -5 -0 1 7 -3 1 4 1 -1 -2
-3 -1 -3 -1 -1 -0 -3 -3 -3 1 -4 -5 -7 -4 -10 5 -6 -9 -15 -1 -1 1 1 -1 2 1 1 -3 -5 -5 -0 -2 -1 4 3 -4 -2 -1 -4 -3 -4 2 2 4 1 2 1
-1 -2 -2 -3 -4 -6 -4 0 -3 -2 -3 -3 -5 -4 3 -6 2 -28 -3 1 -0 1 2 2 1 -0 0 0 3 -0 -4 -11 -3 -7 1 0 -2 -13 -3 -3 6 -12 -3 -4 3 1 -2
-1 -1 -1 -2 -1 -3 -3 -4 -8 -4 -1 0 -9 -8 -3 -5 -22 1 -0 2 3 -2 -4 0 0 1 1 -0 0 0 1 -2 3 8 2 -3 -1 -0 -3 -3 5 4 2 1 2 -1 -0
-2 -1 -1 -2 -1 -0 -2 -1 -3 -2 -7 -5 -5 -2 2 -8 -5 -1 -2 -1 2 -3 -0 -2 0 0 -1 1 -6 0 -0 -8 2 1 6 -5 -4 -3 -11 -8 -13 -1 -1 1 -0 -1 2
-1 0 -3 -1 -2 -2 -3 -2 -3 -2 -1 -2 -1 -6 -2 -5 -0 -1 -0 -0 -3 -1 -0 -0 1 -0 -1 -1 -1 -4 -2 -5 -2 2 0 -5 -1 -3 1 6 4 -7 -4 -1 -2 -3 1
0 -0 -2 -1 -3 -3 -4 -2 -2 -3 -3 -1 -4 0 1 -4 -4 -0 -1 0 -1 -3 -0 -0 -4 1 -1 -1 -1 -1 -1 -5 -5 -0 -3 -6 -1 -1 -0 1 -2 5 4 -0 -4 7 -3
-2 0 -2 -2 -2 -2 -6 -3 -3 -2 -4 -12 -2 -3 -1 1 1 -2 -2 -1 2 -4 2 -4 -2 -1 -1 -3 -4 -1 2 -1 -0 -11 -0 -2 -3 -0 -1 -1 -0 -2 -1 -0 -0 -1 -3
-2 -0 -2 -2 -0 -1 -5 -2 -1 -4 -6 -5 -2 -0 -3 -0 -1 -3 -2 -3 -2 0 -4 2 2 -0 -0 -5 3 0 0 0 1 4 -0 -1 -0 -3 -3 0 -1 -8 7 2 1 -0 5
-2 -1 -1 -2 -0 -2 -3 -4 -2 -2 -5 -4 -2 0 -1 -3 -1 -1 -0 1 0 0 -3 -3 1 -2 -2 7 1 1 1 1 2 -1 2 0 -1 -1 -2 -4 -10 -8 0 3 1 3 -1
-0 0 -1 -1 -1 -1 -1 -3 -4 -3 -2 -1 -3 -1 -0 -2 0 -1 0 0 -0 0 0 -0 -1 1 0 2 -5 -6 -7 -8 -3 0 -1 -1 -2 -3 -5 -0 -7 -8 -1 -1 1 1 3
-0 -2 -2 -1 -2 -2 0 -2 -3 -2 -0 1 -2 -1 -0 -3 -7 -1 -1 0 -1 -0 -5 -3 2 1 2 -1 -3 -2 -1 -1 -6 -13 -0 -1 -3 -8 -3 -4 -2 -9 -2 2 0 -1 2
-1 -2 -0 -1 -2 -1 -2 -1 -2 -1 -0 0 -0 -1 -1 -1 -1 -1 -1 -3 -0 0 -0 -2 -5 -5 0 -0 -1 -1 -2 -3 -4 -0 -3 -3 -3 -2 -0 -1 -9 -4 -2 1 -10 -8 0
-0 -3 -1 -0 -2 -1 -1 -3 -2 -1 -1 -2 1 -0 -1 0 -0 -2 -0 -1 -1 0 -3 -1 -8 -5 -4 -5 -2 -1 -1 -3 -2 -3 -2 -1 -4 -1 -2 -3 -9 1 -3 -13 -7 -1 -0
0 -3 -1 -1 -2 -1 -1 -1 -1 -0 1 0 -1 -3 -1 -1 -1 -1 -0 -1 0 2 -1 -0 -1 -1 -0 -4 -2 -2 -1 -1 -1 -4 -2 -9 -9 -7 -12 -12 -2 -0 -2 -1 -1 -0 -1
Height
1549 1546 1542 1538 1533 1529 1524 1520 1515 1512 1507 1503 1499 1494 1489 1484 1479 1475 1470 1465 1459 1455 1451 1449 1446 1444 1444 1445 1443 1436 1434 1432 1429 1427 1426 1427 1429 1430 1423 1425 1432 1420 1424 1428 1435 1440 1441
1551 1547 1543 1538 1533 1529 1524 1521 1517 1512 1508 1503 1498 1493 1488 1482 1477 1472 1467 1462 1456 1453 1450 1448 1445 1443 1444 1444 1440 1436 1433 1431 1428 1427 1424 1424 1422 1423 1422 1421 1420 1413 1424 1425 1430 1434 1439
1552 1548 1543 1538 1534 1529 1526 1522 1518 1513 1508 1502 1497 1492 1487 1481 1475 1471 1466 1460 1456 1452 1449 1448 1442 1443 1443 1445 1439 1435 1432 1429 1426 1423 1420 1420 1420 1419 1412 1412 1415 1416 1424 1424 1422 1428 1428
1553 1549 1544 1540 1535 1531 1527 1523 1518 1513 1508 1502 1497 1492 1485 1479 1474 1470 1466 1461 1456 1450 1449 1449 1446 1445 1443 1442 1438 1434 1431 1425 1422 1418 1415 1414 1416 1412 1411 1406 1404 1414 1416 1420 1412 1420 1425
1555 1551 1546 1541 1536 1532 1528 1524 1519 1513 1508 1502 1497 1491 1485 1479 1474 1470 1466 1462 1459 1453 1451 1450 1447 1446 1445 1440 1435 1432 1430 1423 1416 1412 1410 1408 1408 1407 1407 1408 1398 1396 1394 1399 1411 1409 1422
1557 1552 1547 1543 1538 1534 1529 1525 1519 1514 1508 1503 1497 1491 1486 1479 1474 1468 1465 1462 1460 1458 1454 1451 1451 1449 1446 1441 1436 1433 1427 1419 1411 1408 1404 1406 1405 1402 1395 1398 1385 1384 1391 1394 1395 1401 1412
1558 1554 1549 1544 1540 1535 1530 1525 1520 1514 1508 1504 1498 1492 1486 1478 1473 1468 1463 1459 1460 1460 1457 1461 1460 1456 1450 1442 1435 1430 1423 1412 1409 1407 1405 1402 1399 1394 1389 1387 1391 1393 1388 1391 1393 1397 1408
1560 1555 1551 1547 1542 1537 1531 1526 1520 1515 1509 1505 1499 1493 1485 1478 1473 1469 1464 1462 1464 1466 1463 1461 1458 1454 1448 1441 1435 1430 1422 1417 1412 1410 1405 1405 1398 1394 1394 1393 1392 1396 1392 1388 1392 1390 1396
1561 1558 1553 1549 1544 1538 1532 1527 1521 1516 1511 1506 1500 1494 1486 1479 1474 1469 1465 1464 1463 1463 1463 1462 1460 1453 1449 1443 1439 1433 1427 1418 1412 1409 1408 1410 1398 1397 1394 1390 1393 1392 1392 1395 1393 1392 1392
1563 1559 1555 1550 1545 1539 1534 1529 1523 1518 1513 1508 1503 1495 1487 1479 1473 1470 1468 1466 1464 1464 1475 1470 1463 1460 1452 1445 1441 1436 1430 1423 1416 1414 1408 1403 1400 1397 1391 1391 1389 1393 1389 1394 1394 1391 1385
1565 1561 1556 1552 1547 1541 1536 1531 1525 1519 1514 1510 1505 1498 1490 1479 1478 1472 1474 1468 1465 1465 1499 1477 1467 1464 1460 1457 1451 1437 1434 1421 1419 1417 1413 1409 1400 1395 1384 1384 1385 1399 1386 1387 1395 1399 1384
1566 1562 1557 1553 1549 1543 1538 1532 1527 1521 1516 1512 1507 1500 1493 1485 1479 1477 1473 1471 1470 1478 1529 1485 1478 1471 1461 1454 1450 1442 1437 1429 1420 1417 1411 1411 1405 1400 1396 1388 1386 1388 1387 1390 1394 1396 1390
1567 1563 1559 1555 1551 1545 1540 1534 1528 1523 1518 1515 1511 1504 1495 1488 1481 1477 1472 1472 1489 1506 1500 1491 1483 1476 1469 1462 1453 1450 1445 1435 1437 1427 1422 1411 1405 1401 1399 1393 1388 1389 1393 1383 1385 1386 1374
1568 1565 1561 1556 1552 1546 1541 1535 1530 1525 1520 1517 1515 1509 1500 1493 1489 1481 1477 1482 1500 1508 1505 1495 1490 1480 1474 1468 1463 1457 1454 1447 1441 1442 1437 1428 1415 1410 1413 1411 1408 1404 1386 1383 1380 1375 1394
1570 1566 1562 1557 1553 1547 1543 1537 1532 1526 1521 1518 1516 1510 1502 1497 1493 1486 1482 1501 1522 1516 1510 1502 1492 1491 1483 1475 1477 1467 1464 1457 1455 1449 1449 1435 1428 1421 1416 1414 1409 1399 1386 1397 1387 1395 1379
1571 1567 1563 1558 1554 1549 1544 1538 1533 1528 1522 1518 1516 1511 1506 1503 1500 1491 1493 1508 1519 1516 1511 1506 1508 1501 1499 1488 1482 1478 1472 1463 1458 1455 1451 1444 1441 1423 1420 1413 1409 1408 1406 1390 1385 1376 1389
1572 1568 1564 1559 1555 1551 1546 1540 1534 1529 1523 1519 1517 1514 1513 1509 1503 1498 1511 1521 1518 1516 1513 1511 1509 1507 1502 1501 1493 1489 1483 1468 1462 1455 1450 1449 1450 1433 1424 1425 1425 1417 1414 1410 1403 1391 1380
1574 1569 1565 1560 1556 1552 1547 1542 1536 1530 1524 1521 1519 1521 1517 1511 1505 1513 1521 1522 1520 1517 1515 1512 1511 1509 1507 1502 1500 1493 1486 1480 1469 1464 1455 1449 1453 1448 1443 1433 1430 1430 1427 1419 1404 1393 1405
1574 1570 1566 1562 1557 1553 1549 1543 1537 1531 1525 1521 1521 1523 1521 1513 1523 1525 1524 1523 1521 1519 1517 1514 1512 1511 1508 1507 1510 1500 1488 1475 1472 1466 1463 1455 1461 1460 1438 1436 1432 1432 1430 1420 1413 1415 1427
1575 1571 1567 1562 1557 1554 1550 1545 1540 1533 1527 1523 1523 1525 1523 1521 1527 1528 1529 1526 1523 1520 1519 1518 1515 1511 1510 1507 1504 1506 1493 1480 1474 1471 1462 1457 1472 1472 1467 1463 1460 1450 1438 1429 1425 1422 1425
1576 1572 1567 1563 1558 1555 1551 1547 1541 1536 1530 1527 1527 1533 1533 1534 1529 1530 1530 1529 1526 1525 1520 1517 1515 1515 1518 1519 1510 1505 1496 1487 1476 1474 1471 1472 1477 1473 1462 1459 1460 1457 1447 1441 1437 1436 1433
1577 1572 1568 1563 1559 1556 1552 1548 1543 1538 1533 1530 1531 1533 1534 1534 1532 1532 1532 1532 1529 1526 1524 1519 1520 1514 1517 1521 1513 1507 1505 1504 1499 1480 1478 1479 1481 1475 1470 1462 1456 1458 1461 1453 1451 1450 1449
1577 1573 1569 1564 1560 1556 1553 1548 1544 1540 1535 1533 1534 1533 1534 1536 1534 1535 1537 1534 1530 1527 1521 1519 1517 1517 1517 1510 1505 1501 1501 1498 1497 1495 1491 1489 1487 1488 1482 1467 1463 1466 1474 1470 1469 1468 1465
1576 1573 1569 1564 1560 1557 1553 1549 1546 1542 1538 1536 1535 1533 1532 1538 1535 1535 1533 1532 1529 1527 1527 1518 1516 1517 1509 1504 1498 1495 1494 1493 1494 1492 1492 1491 1504 1505 1491 1474 1496 1483 1479 1477 1474 1475 1470
1576 1573 1569 1565 1560 1557 1554 1550 1547 1543 1540 1537 1536 1534 1533 1538 1535 1532 1531 1529 1526 1524 1523 1519 1516 1514 1508 1501 1502 1506 1498 1493 1491 1490 1491 1491 1501 1504 1499 1514 1491 1486 1482 1483 1482 1477 1475
1575 1572 1569 1565 1561 1557 1554 1550 1547 1544 1541 1538 1536 1535 1534 1534 1534 1532 1531 1530 1531 1527 1522 1517 1515 1510 1507 1505 1509 1526 1519 1512 1505 1495 1488 1490 1496 1500 1514 1522 1511 1491 1482 1481 1480 1480 1482
1574 1572 1568 1565 1561 1557 1554 1550 1547 1544 1541 1540 1537 1535 1534 1532 1530 1530 1530 1530 1528 1527 1528 1520 1516 1511 1509 1513 1518 1523 1521 1518 1520 1525 1509 1504 1508 1517 1522 1532 1504 1487 1481 1479 1482 1489 1483
1573 1571 1567 1564 1560 1556 1553 1550 1546 1544 1542 1540 1539 1536 1535 1531 1527 1526 1527 1527 1525 1525 1529 1521 1520 1517 1517 1523 1526 1530 1529 1523 1522 1514 1512 1514 1523 1523 1526 1528 1507 1485 1482 1487 1488 1484 1483
1571 1568 1566 1563 1559 1555 1552 1549 1546 1544 1542 1540 1537 1534 1532 1529 1525 1523 1523 1523 1524 1523 1523 1522 1524 1523 1522 1527 1530 1531 1527 1528 1524 1525 1504 1512 1508 1514 1509 1500 1486 1485 1485 1485 1485 1485 1484